STARLINK-1310 (45378 NORAD) Tracking and Keplerian Element Data

This shows tracking and keplerian element data for the satellite.

Feedback or suggestion? Click here.




ElementValue
Catalog45378
NameSTARLINK-1310
Epoch Orbit1098
Epoch Day145.75001157
Epoch Year2020
RAAN300.9419
Inclination53.0011
Eccentricity0.0001305
Argument of Perigee98.6338
Mean Anonmoly316.0257
Mean Motion15.05579737
Decay Rate-8.568E-05
L11 45378U 20019U 20145.75001157 -.00008568 00000-0 -56958-3 0 9992
L22 45378 53.0011 300.9419 0001305 98.6338 316.0257 15.05579737 10982

Live tracking and technical data element details for STARLINK-1310 (NORAD 45378). STARLINK-1310 can be tracked NOW for your location showing map with azimuth and elevation plus other details from your city location.

Track the satellite on the map from your city or location and see movement details for azimuth, elevation, latitude, longitude, range, height, and movement on the map or in text.







IsCatalogInMostPopularTable: catalog: 45378, numindb: 14
Update: records affected: 1



GetName: 45378 STARLINK-1310

Hit Count: updated at: Tue, 26 May 2020 03:01:36 GMT